Location: Britannia Beach
(45.3521°N, 62.9901°W)
Time: 17:46:44
(UTC+00:00)

X-37B - Pass Details

Date: 10 August 2021
Orbit: 381 x 393 km, 45.0° (Epoch: 29 August)

Event Time Altitude Azimuth Distance (km) Brightness Sun altitude
Exits shadow 07:27:30 33° 268° (W) 660 1.3 -15.5°
Maximum altitude 07:28:44 74° 189° (S) 400 0.4 -15.4°
Drops below altitude 10° 07:31:51 10° 105° (ESE) 1,395 3.8 -15.0°
Sets 07:33:55 0° 103° (ESE) 2,247 5.0 -14.7°
